Date String (YYYY-MM-DD hh:mm:ss) UTC,Instrument flags,Ambient pressure (hPa),Sample flow (lpm),Bypass flow (lpm),Sample temperature (°C),Ambient temperature (°C),ASC tube jacket temperature (°C),LED temperature (°C),Box temperature (°C),Sample RH (%),Span deviation,Mass concentration (μg/m³),Mass concentration (μg/m³),Mass concentration (μg/m³)
DateTimeUTC,F1_M11,P_M11,Q1_M11,Q2_M11,T1_M11,T2_M11,T3_M11,T4_M11,T5_M11,U1_M11,ZSPAN_M11,X0_M11,X2_M11,X1_M11
2022-06-02 23:00:00,,0826.4,4.99,0.00,29.6,28.8,00.0,38.5,31.6,22.6,-001.6,0016.38,0010.10,0009.47
2022-06-02 23:01:00,,0826.4,5.00,0.00,29.7,28.8,00.0,38.5,31.6,22.7,-001.4,0016.70,0010.07,0009.44
2022-06-02 23:02:00,,0826.4,5.00,0.00,29.7,28.9,00.0,38.5,31.7,22.4,-001.3,0017.11,0010.02,0009.37
2022-06-02 23:03:00,,0826.4,5.00,0.00,29.7,29.0,00.0,38.5,31.7,21.9,-001.3,0017.16,0009.97,0009.32
2022-06-02 23:04:00,,0826.3,5.00,0.00,29.8,29.0,00.0,38.5,31.7,22.3,-001.3,0016.49,0009.89,0009.27
2022-06-02 23:05:00,,0826.4,4.99,0.00,29.8,29.1,00.0,38.6,31.8,22.2,-001.6,0015.63,0009.79,0009.20
2022-06-02 23:06:00,,0826.3,4.99,0.00,29.9,29.1,00.0,38.6,31.8,22.2,-001.9,0015.21,0009.67,0009.08
2022-06-02 23:07:00,,0826.3,4.99,0.00,29.9,29.2,00.0,38.6,31.9,22.2,-002.3,0015.08,0009.54,0008.97
2022-06-02 23:08:00,,0826.3,5.00,0.00,29.9,29.2,00.0,38.7,31.9,22.1,-002.4,0014.86,0009.44,0008.89
2022-06-02 23:09:00,,0826.3,5.00,0.00,29.9,28.9,00.0,38.6,31.8,21.6,-002.5,0014.58,0009.37,0008.83
2022-06-02 23:10:00,,0826.3,5.00,0.00,29.9,28.1,00.0,38.6,31.6,22.5,-002.6,0014.16,0009.27,0008.74
2022-06-02 23:11:00,,0826.4,5.00,0.00,29.8,27.7,00.0,38.5,31.5,23.1,-002.6,0014.18,0009.14,0008.64
2022-06-02 23:12:00,,0826.3,5.00,0.00,29.7,27.7,00.0,38.6,31.4,22.7,-002.7,0013.90,0009.01,0008.54
2022-06-02 23:13:00,,0826.3,5.00,0.00,29.7,27.8,00.0,38.5,31.4,22.4,-002.6,0013.39,0008.92,0008.45
2022-06-02 23:14:00,,0826.3,5.00,0.00,29.7,27.9,00.0,38.5,31.4,23.2,-002.6,0013.24,0008.82,0008.31
2022-06-02 23:15:00,,0826.3,5.00,0.00,29.7,28.1,00.0,38.5,31.5,22.5,-002.6,0013.15,0008.68,0008.16
2022-06-02 23:16:00,,0826.3,4.98,0.00,29.7,28.2,00.0,38.5,31.5,22.2,-002.6,0013.73,0008.59,0008.07
2022-06-02 23:17:00,,0826.3,4.99,0.00,29.7,28.3,00.0,38.5,31.5,21.8,-002.6,0014.27,0008.61,0008.05
2022-06-02 23:18:00,,0826.3,5.00,0.00,29.7,28.5,00.0,38.6,31.6,22.1,-002.4,0014.13,0008.64,0008.06
2022-06-02 23:19:00,,0826.4,5.01,0.00,29.7,28.6,00.0,38.6,31.6,22.5,-002.1,0014.15,0008.65,0008.04
2022-06-02 23:20:00,,0826.4,5.00,0.00,29.7,28.7,00.0,38.6,31.6,22.2,-002.0,0014.17,0008.65,0008.03
2022-06-02 23:21:00,,0826.4,4.99,0.00,29.8,28.8,00.0,38.6,31.7,22.0,-001.5,0014.28,0008.68,0008.03
2022-06-02 23:22:00,,0826.4,4.99,0.00,29.8,28.8,00.0,38.6,31.7,21.9,-001.4,0014.11,0008.78,0008.11
2022-06-02 23:23:00,,0826.4,5.00,0.00,29.8,28.9,00.0,38.6,31.8,22.0,-001.1,0013.92,0008.91,0008.19
2022-06-02 23:24:00,,0826.4,4.99,0.00,29.8,29.0,00.0,38.6,31.7,22.6,-001.0,0014.53,0008.93,0008.22
2022-06-02 23:25:00,,0826.3,5.00,0.00,29.9,29.0,00.0,38.7,31.8,22.5,-000.5,0015.01,0008.90,0008.24
2022-06-02 23:26:00,,0826.3,5.01,0.00,29.9,29.1,00.0,38.7,31.8,21.6,-000.3,0015.23,0008.97,0008.31
2022-06-02 23:27:00,,0826.4,4.99,0.00,29.9,29.1,00.0,38.7,31.9,21.5,-000.3,0014.94,0009.01,0008.34
2022-06-02 23:28:00,,0826.4,5.00,0.00,30.0,29.2,00.0,38.7,31.9,21.6,-000.4,0014.64,0009.02,0008.36
2022-06-02 23:29:00,,0826.4,5.00,0.00,30.0,29.2,00.0,38.7,31.9,20.8,-000.4,0014.67,0009.07,0008.43
2022-06-02 23:30:00,,0826.3,5.00,0.00,30.0,28.8,00.0,38.7,31.8,20.9,-000.7,0015.23,0009.20,0008.57
2022-06-02 23:31:00,,0826.3,5.00,0.00,29.9,27.6,00.0,38.6,31.5,21.0,-000.5,0015.50,0009.32,0008.67
2022-06-02 23:32:00,,0826.3,5.01,0.00,29.8,27.0,00.0,38.6,31.3,21.7,-000.7,0015.62,0009.38,0008.72
2022-06-02 23:33:00,,0826.3,4.98,0.00,29.7,27.0,00.0,38.5,31.2,22.3,-000.8,0015.35,0009.32,0008.71
2022-06-02 23:34:00,,0826.3,5.01,0.00,29.6,27.1,00.0,38.5,31.2,23.1,-000.7,0015.19,0009.20,0008.63
2022-06-02 23:35:00,,0826.3,4.99,0.00,29.5,27.3,00.0,38.5,31.2,23.0,-000.8,0014.82,0009.16,0008.60
2022-06-02 23:36:00,,0826.2,5.00,0.00,29.5,27.5,00.0,38.5,31.3,23.2,-000.6,0014.33,0009.19,0008.58
2022-06-02 23:37:00,,0826.2,5.01,0.00,29.5,27.7,00.0,38.5,31.3,22.6,-000.8,0014.47,0009.21,0008.58
2022-06-02 23:38:00,,0826.2,5.00,0.00,29.5,27.8,00.0,38.5,31.3,22.4,-000.8,0014.53,0009.25,0008.60
2022-06-02 23:39:00,,0826.2,5.00,0.00,29.5,28.0,00.0,38.5,31.4,22.4,0000.0,0014.86,0009.25,0008.61
2022-06-02 23:40:00,,0826.2,4.99,0.00,29.5,28.2,00.0,38.5,31.4,22.2,0000.6,0015.61,0009.20,0008.56
2022-06-02 23:41:00,,0826.1,4.99,0.00,29.5,28.3,00.0,38.4,31.4,22.3,0000.3,0015.19,0009.12,0008.46
2022-06-02 23:42:00,,0826.1,5.00,0.00,29.6,28.4,00.0,38.5,31.5,22.0,0000.1,0015.28,0009.06,0008.41
2022-06-02 23:43:00,,0826.1,5.00,0.00,29.6,28.5,00.0,38.5,31.5,22.2,0000.1,0015.53,0009.04,0008.40
2022-06-02 23:44:00,,0826.1,4.98,0.00,29.6,28.6,00.0,38.5,31.5,22.2,0000.5,0015.92,0009.11,0008.44
2022-06-02 23:45:00,,0826.1,5.00,0.00,29.6,28.7,00.0,38.5,31.6,22.4,0000.3,0016.66,0009.19,0008.51
2022-06-02 23:46:00,,0826.2,5.02,0.00,29.7,28.8,00.0,38.5,31.6,22.5,0000.2,0016.86,0009.25,0008.55
2022-06-02 23:47:00,,0826.2,5.00,0.00,29.7,28.8,00.0,38.5,31.7,22.7,-000.2,0017.06,0009.33,0008.63
2022-06-02 23:48:00,,0826.2,4.99,0.00,29.7,28.9,00.0,38.5,31.7,22.4,-000.4,0017.35,0009.35,0008.68
2022-06-02 23:49:00,,0826.3,4.99,0.00,29.8,29.0,00.0,38.6,31.7,22.5,0000.1,0017.38,0009.32,0008.67
2022-06-02 23:50:00,,0826.3,5.00,0.00,29.8,29.0,00.0,38.6,31.8,22.7,-000.2,0016.72,0009.29,0008.64
2022-06-02 23:51:00,,0826.2,5.00,0.00,29.8,29.1,00.0,38.6,31.8,22.6,-000.5,0016.33,0009.26,0008.60
2022-06-02 23:52:00,,0826.2,5.00,0.00,29.9,29.1,00.0,38.6,31.8,22.2,-000.4,0016.17,0009.24,0008.60
2022-06-02 23:53:00,,0826.2,4.99,0.00,29.9,29.2,00.0,38.6,31.9,22.1,-000.0,0015.96,0009.20,0008.60
2022-06-02 23:54:00,,0826.2,4.99,0.00,29.9,29.2,00.0,38.7,31.9,22.3,-000.1,0015.87,0009.16,0008.58
2022-06-02 23:55:00,,0826.2,4.99,0.00,30.0,29.2,00.0,38.7,31.9,22.3,-000.3,0015.55,0009.12,0008.56
2022-06-02 23:56:00,,0826.2,5.00,0.00,30.0,29.2,00.0,38.7,31.9,22.2,-000.4,0014.91,0009.11,0008.54
2022-06-02 23:57:00,,0826.2,4.99,0.00,30.0,28.5,00.0,38.7,31.7,22.4,-000.4,0014.79,0009.07,0008.51
2022-06-02 23:58:00,,0826.2,5.00,0.00,29.9,27.8,00.0,38.6,31.5,22.0,-000.4,0014.98,0008.98,0008.44
2022-06-02 23:59:00,,0826.2,5.00,0.00,29.8,27.6,00.0,38.6,31.4,21.6,-000.4,0014.44,0008.88,0008.36
